owner,sensor,date,latitude,longitude,vertical_datum,sea_water_temperature,qcFlag 
SCCF RECON,ioos:station:SCCF:56:1,2019-01-01T05:00:00Z,26.4645,-82.1044,1.64,22.52,11111222 
SCCF RECON,ioos:station:SCCF:56:1,2019-01-01T06:00:00Z,26.4645,-82.1044,1.64,22.63,11111222 
SCCF RECON,ioos:station:SCCF:56:1,2019-01-01T07:00:00Z,26.4645,-82.1044,1.64,22.8,11111222 
SCCF RECON,ioos:station:SCCF:56:1,2019-01-01T08:00:00Z,26.4645,-82.1044,1.64,22.83,11111222 
SCCF RECON,ioos:station:SCCF:56:1,2019-01-01T09:00:00Z,26.4645,-82.1044,1.64,22.82,11111222 
SCCF RECON,ioos:station:SCCF:56:1,2019-01-01T10:00:00Z,26.4645,-82.1044,1.64,22.77,11111222 
SCCF RECON,ioos:station:SCCF:56:1,2019-01-01T11:00:00Z,26.4645,-82.1044,1.64,22.59,11111222 
SCCF RECON,ioos:station:SCCF:56:1,2019-01-01T12:00:00Z,26.4645,-82.1044,1.64,22.17,11111222 
SCCF RECON,ioos:station:SCCF:56:1,2019-01-01T13:00:00Z,26.4645,-82.1044,1.64,21.99,11111222 
SCCF RECON,ioos:station:SCCF:56:1,2019-01-01T14:00:00Z,26.4645,-82.1044,1.64,22.12,11111222 
SCCF RECON,ioos:station:SCCF:56:1,2019-01-01T15:00:00Z,26.4645,-82.1044,1.64,22.37,11111222 
SCCF RECON,ioos:station:SCCF:56:1,2019-01-01T16:00:00Z,26.4645,-82.1044,1.64,22.59,11111222 
SCCF RECON,ioos:station:SCCF:56:1,2019-01-01T17:00:00Z,26.4645,-82.1044,1.64,22.77,11111222 
SCCF RECON,ioos:station:SCCF:56:1,2019-01-01T18:00:00Z,26.4645,-82.1044,1.64,23.33,11111222 
SCCF RECON,ioos:station:SCCF:56:1,2019-01-01T19:00:00Z,26.4645,-82.1044,1.64,23.09,11111222 
SCCF RECON,ioos:station:SCCF:56:1,2019-01-01T20:00:00Z,26.4645,-82.1044,1.64,23.57,11111222 
SCCF RECON,ioos:station:SCCF:56:1,2019-01-01T21:00:00Z,26.4645,-82.1044,1.64,24.11,11111222 
SCCF RECON,ioos:station:SCCF:56:1,2019-01-01T22:00:00Z,26.4645,-82.1044,1.64,23.94,11111222 
SCCF RECON,ioos:station:SCCF:56:1,2019-01-01T23:00:00Z,26.4645,-82.1044,1.64,23.66,11111222 
SCCF RECON,ioos:station:SCCF:56:1,2019-01-02T05:00:00Z,26.4645,-82.1044,1.64,23.3,11111222 
SCCF RECON,ioos:station:SCCF:56:1,2019-01-02T06:00:00Z,26.4645,-82.1044,1.64,23.36,11111222 
SCCF RECON,ioos:station:SCCF:56:1,2019-01-02T07:00:00Z,26.4645,-82.1044,1.64,23.63,11111222 
SCCF RECON,ioos:station:SCCF:56:1,2019-01-02T08:00:00Z,26.4645,-82.1044,1.64,23.67,11111222 
SCCF RECON,ioos:station:SCCF:56:1,2019-01-02T09:00:00Z,26.4645,-82.1044,1.64,23.64,11111222 
SCCF RECON,ioos:station:SCCF:56:1,2019-01-02T10:00:00Z,26.4645,-82.1044,1.64,23.57,11111222 
SCCF RECON,ioos:station:SCCF:56:1,2019-01-02T11:00:00Z,26.4645,-82.1044,1.64,23.66,11111222 
SCCF RECON,ioos:station:SCCF:56:1,2019-01-02T12:00:00Z,26.4645,-82.1044,1.64,23.5,11111222 
SCCF RECON,ioos:station:SCCF:56:1,2019-01-02T13:00:00Z,26.4645,-82.1044,1.64,22.88,11111222 
SCCF RECON,ioos:station:SCCF:56:1,2019-01-02T14:00:00Z,26.4645,-82.1044,1.64,22.76,11111222 
SCCF RECON,ioos:station:SCCF:56:1,2019-01-02T15:00:00Z,26.4645,-82.1044,1.64,22.85,11111222 
SCCF RECON,ioos:station:SCCF:56:1,2019-01-02T16:00:00Z,26.4645,-82.1044,1.64,23.17,11111222 
SCCF RECON,ioos:station:SCCF:56:1,2019-01-02T17:00:00Z,26.4645,-82.1044,1.64,23.51,11111222 
SCCF RECON,ioos:station:SCCF:56:1,2019-01-02T18:00:00Z,26.4645,-82.1044,1.64,23.62,11111222 
SCCF RECON,ioos:station:SCCF:56:1,2019-01-02T19:00:00Z,26.4645,-82.1044,1.64,24.09,11111222 
SCCF RECON,ioos:station:SCCF:56:1,2019-01-02T20:00:00Z,26.4645,-82.1044,1.64,24.14,11111222 
SCCF RECON,ioos:station:SCCF:56:1,2019-01-02T21:00:00Z,26.4645,-82.1044,1.64,24.22,11111222 
SCCF RECON,ioos:station:SCCF:56:1,2019-01-02T22:00:00Z,26.4645,-82.1044,1.64,24.14,11111222 
SCCF RECON,ioos:station:SCCF:56:1,2019-01-02T23:00:00Z,26.4645,-82.1044,1.64,24.4,11111222 
SCCF RECON,ioos:station:SCCF:56:1,2019-01-03T05:00:00Z,26.4645,-82.1044,1.64,23.29,11111222 
SCCF RECON,ioos:station:SCCF:56:1,2019-01-03T06:00:00Z,26.4645,-82.1044,1.64,23.3,11111222 
SCCF RECON,ioos:station:SCCF:56:1,2019-01-03T07:00:00Z,26.4645,-82.1044,1.64,23.51,11111222 
SCCF RECON,ioos:station:SCCF:56:1,2019-01-03T08:00:00Z,26.4645,-82.1044,1.64,23.56,11111222 
SCCF RECON,ioos:station:SCCF:56:1,2019-01-03T09:00:00Z,26.4645,-82.1044,1.64,23.54,11111222 
SCCF RECON,ioos:station:SCCF:56:1,2019-01-03T10:00:00Z,26.4645,-82.1044,1.64,23.52,11111222 
SCCF RECON,ioos:station:SCCF:56:1,2019-01-03T11:00:00Z,26.4645,-82.1044,1.64,23.5,11111222 
SCCF RECON,ioos:station:SCCF:56:1,2019-01-03T12:00:00Z,26.4645,-82.1044,1.64,23.46,11111222 
SCCF RECON,ioos:station:SCCF:56:1,2019-01-03T13:00:00Z,26.4645,-82.1044,1.64,23.3,11111222 
SCCF RECON,ioos:station:SCCF:56:1,2019-01-03T14:00:00Z,26.4645,-82.1044,1.64,23.1,11111222 
SCCF RECON,ioos:station:SCCF:56:1,2019-01-03T15:00:00Z,26.4645,-82.1044,1.64,23.29,11111222 
SCCF RECON,ioos:station:SCCF:56:1,2019-01-03T16:00:00Z,26.4645,-82.1044,1.64,23.55,11111222 
SCCF RECON,ioos:station:SCCF:56:1,2019-01-03T17:00:00Z,26.4645,-82.1044,1.64,23.65,11111222 
SCCF RECON,ioos:station:SCCF:56:1,2019-01-03T18:00:00Z,26.4645,-82.1044,1.64,23.89,11111222 
SCCF RECON,ioos:station:SCCF:56:1,2019-01-03T19:00:00Z,26.4645,-82.1044,1.64,24.25,11111222 
SCCF RECON,ioos:station:SCCF:56:1,2019-01-03T20:00:00Z,26.4645,-82.1044,1.64,24.39,11111222 
SCCF RECON,ioos:station:SCCF:56:1,2019-01-03T21:00:00Z,26.4645,-82.1044,1.64,24.39,11111222 
SCCF RECON,ioos:station:SCCF:56:1,2019-01-03T22:00:00Z,26.4645,-82.1044,1.64,24.74,11111222 
SCCF RECON,ioos:station:SCCF:56:1,2019-01-03T23:00:00Z,26.4645,-82.1044,1.64,24.91,11111222 
SCCF RECON,ioos:station:SCCF:56:1,2019-01-04T05:00:00Z,26.4645,-82.1044,1.64,23.58,11111222 
SCCF RECON,ioos:station:SCCF:56:1,2019-01-04T06:00:00Z,26.4645,-82.1044,1.64,23.59,11111222 
SCCF RECON,ioos:station:SCCF:56:1,2019-01-04T07:00:00Z,26.4645,-82.1044,1.64,23.69,11111222 
SCCF RECON,ioos:station:SCCF:56:1,2019-01-04T08:00:00Z,26.4645,-82.1044,1.64,23.83,11111222 
SCCF RECON,ioos:station:SCCF:56:1,2019-01-04T09:00:00Z,26.4645,-82.1044,1.64,23.9,11111222 
SCCF RECON,ioos:station:SCCF:56:1,2019-01-04T10:00:00Z,26.4645,-82.1044,1.64,23.91,11111222 
SCCF RECON,ioos:station:SCCF:56:1,2019-01-04T11:00:00Z,26.4645,-82.1044,1.64,23.88,11111222 
SCCF RECON,ioos:station:SCCF:56:1,2019-01-04T12:00:00Z,26.4645,-82.1044,1.64,23.89,11111222 
SCCF RECON,ioos:station:SCCF:56:1,2019-01-04T13:00:00Z,26.4645,-82.1044,1.64,23.84,11111222 
SCCF RECON,ioos:station:SCCF:56:1,2019-01-04T14:00:00Z,26.4645,-82.1044,1.64,23.58,11111222 
SCCF RECON,ioos:station:SCCF:56:1,2019-01-04T15:00:00Z,26.4645,-82.1044,1.64,23.76,11111222 
SCCF RECON,ioos:station:SCCF:56:1,2019-01-04T17:00:00Z,26.4645,-82.1044,1.64,24.15,11111222 
SCCF RECON,ioos:station:SCCF:56:1,2019-01-04T18:00:00Z,26.4645,-82.1044,1.64,24.23,11111222 
SCCF RECON,ioos:station:SCCF:56:1,2019-01-04T19:00:00Z,26.4645,-82.1044,1.64,24.35,11111222 
SCCF RECON,ioos:station:SCCF:56:1,2019-01-04T20:00:00Z,26.4645,-82.1044,1.64,24.49,11111222 
SCCF RECON,ioos:station:SCCF:56:1,2019-01-04T21:00:00Z,26.4645,-82.1044,1.64,24.54,11111222 
SCCF RECON,ioos:station:SCCF:56:1,2019-01-04T22:00:00Z,26.4645,-82.1044,1.64,24.59,11111222 
SCCF RECON,ioos:station:SCCF:56:1,2019-01-04T23:00:00Z,26.4645,-82.1044,1.64,24.67,11111222 
SCCF RECON,ioos:station:SCCF:56:1,2019-01-05T05:00:00Z,26.4645,-82.1044,1.64,23.73,11111222 
SCCF RECON,ioos:station:SCCF:56:1,2019-01-05T06:00:00Z,26.4645,-82.1044,1.64,23.85,11111222 
SCCF RECON,ioos:station:SCCF:56:1,2019-01-05T07:00:00Z,26.4645,-82.1044,1.64,23.73,11111222 
SCCF RECON,ioos:station:SCCF:56:1,2019-01-05T08:00:00Z,26.4645,-82.1044,1.64,23.82,11111222 
SCCF RECON,ioos:station:SCCF:56:1,2019-01-05T09:00:00Z,26.4645,-82.1044,1.64,23.89,11111222 
SCCF RECON,ioos:station:SCCF:56:1,2019-01-05T10:00:00Z,26.4645,-82.1044,1.64,23.84,11111222 
SCCF RECON,ioos:station:SCCF:56:1,2019-01-05T11:00:00Z,26.4645,-82.1044,1.64,23.69,11111222 
SCCF RECON,ioos:station:SCCF:56:1,2019-01-05T12:00:00Z,26.4645,-82.1044,1.64,23.52,11111222 
SCCF RECON,ioos:station:SCCF:56:1,2019-01-05T13:00:00Z,26.4645,-82.1044,1.64,23.24,11111222 
SCCF RECON,ioos:station:SCCF:56:1,2019-01-05T14:00:00Z,26.4645,-82.1044,1.64,23.12,11111222 
SCCF RECON,ioos:station:SCCF:56:1,2019-01-05T15:00:00Z,26.4645,-82.1044,1.64,22.66,11111222 
SCCF RECON,ioos:station:SCCF:56:1,2019-01-05T16:00:00Z,26.4645,-82.1044,1.64,22.85,11111222 
SCCF RECON,ioos:station:SCCF:56:1,2019-01-05T17:00:00Z,26.4645,-82.1044,1.64,23.34,11111222 
SCCF RECON,ioos:station:SCCF:56:1,2019-01-05T18:00:00Z,26.4645,-82.1044,1.64,23.44,11111222 
SCCF RECON,ioos:station:SCCF:56:1,2019-01-05T19:00:00Z,26.4645,-82.1044,1.64,23.53,11111222 
SCCF RECON,ioos:station:SCCF:56:1,2019-01-05T20:00:00Z,26.4645,-82.1044,1.64,23.6,11111222 
SCCF RECON,ioos:station:SCCF:56:1,2019-01-05T21:00:00Z,26.4645,-82.1044,1.64,23.67,11111222 
SCCF RECON,ioos:station:SCCF:56:1,2019-01-05T22:00:00Z,26.4645,-82.1044,1.64,23.74,11111222 
SCCF RECON,ioos:station:SCCF:56:1,2019-01-05T23:00:00Z,26.4645,-82.1044,1.64,23.63,11111222 
SCCF RECON,ioos:station:SCCF:56:1,2019-01-06T05:00:00Z,26.4645,-82.1044,1.64,21.94,11111222 
SCCF RECON,ioos:station:SCCF:56:1,2019-01-06T06:00:00Z,26.4645,-82.1044,1.64,21.65,11111222 
SCCF RECON,ioos:station:SCCF:56:1,2019-01-06T07:00:00Z,26.4645,-82.1044,1.64,21.66,11111222 
SCCF RECON,ioos:station:SCCF:56:1,2019-01-06T08:00:00Z,26.4645,-82.1044,1.64,21.48,11111222 
SCCF RECON,ioos:station:SCCF:56:1,2019-01-06T09:00:00Z,26.4645,-82.1044,1.64,21.29,11111222 
SCCF RECON,ioos:station:SCCF:56:1,2019-01-06T10:00:00Z,26.4645,-82.1044,1.64,20.79,11111222 
SCCF RECON,ioos:station:SCCF:56:1,2019-01-06T11:00:00Z,26.4645,-82.1044,1.64,20.33,11111222 
SCCF RECON,ioos:station:SCCF:56:1,2019-01-06T12:00:00Z,26.4645,-82.1044,1.64,19.84,11111222 
SCCF RECON,ioos:station:SCCF:56:1,2019-01-06T13:00:00Z,26.4645,-82.1044,1.64,19.14,11111222 
SCCF RECON,ioos:station:SCCF:56:1,2019-01-06T14:00:00Z,26.4645,-82.1044,1.64,18.88,11111222 
SCCF RECON,ioos:station:SCCF:56:1,2019-01-06T15:00:00Z,26.4645,-82.1044,1.64,19.76,11111222 
SCCF RECON,ioos:station:SCCF:56:1,2019-01-06T16:00:00Z,26.4645,-82.1044,1.64,20.4,11111222 
SCCF RECON,ioos:station:SCCF:56:1,2019-01-06T17:00:00Z,26.4645,-82.1044,1.64,20.82,11111222 
SCCF RECON,ioos:station:SCCF:56:1,2019-01-06T18:00:00Z,26.4645,-82.1044,1.64,21.33,11111222 
SCCF RECON,ioos:station:SCCF:56:1,2019-01-06T19:00:00Z,26.4645,-82.1044,1.64,21.7,11111222 
SCCF RECON,ioos:station:SCCF:56:1,2019-01-06T20:00:00Z,26.4645,-82.1044,1.64,21.84,11111222 
SCCF RECON,ioos:station:SCCF:56:1,2019-01-06T21:00:00Z,26.4645,-82.1044,1.64,21.83,11111222 
SCCF RECON,ioos:station:SCCF:56:1,2019-01-06T22:00:00Z,26.4645,-82.1044,1.64,21.69,11111222 
SCCF RECON,ioos:station:SCCF:56:1,2019-01-06T23:00:00Z,26.4645,-82.1044,1.64,21.57,11111222 
SCCF RECON,ioos:station:SCCF:56:1,2019-01-07T05:00:00Z,26.4645,-82.1044,1.64,20.9,11111222 
SCCF RECON,ioos:station:SCCF:56:1,2019-01-07T06:00:00Z,26.4645,-82.1044,1.64,20.84,11111222 
SCCF RECON,ioos:station:SCCF:56:1,2019-01-07T07:00:00Z,26.4645,-82.1044,1.64,20.7,11111222 
SCCF RECON,ioos:station:SCCF:56:1,2019-01-07T09:00:00Z,26.4645,-82.1044,1.64,20.45,11111222 
SCCF RECON,ioos:station:SCCF:56:1,2019-01-07T10:00:00Z,26.4645,-82.1044,1.64,20.29,11111222 
SCCF RECON,ioos:station:SCCF:56:1,2019-01-07T11:00:00Z,26.4645,-82.1044,1.64,19.99,11111222 
SCCF RECON,ioos:station:SCCF:56:1,2019-01-07T12:00:00Z,26.4645,-82.1044,1.64,19.81,11111222 
SCCF RECON,ioos:station:SCCF:56:1,2019-01-07T13:00:00Z,26.4645,-82.1044,1.64,19.66,11111222 
SCCF RECON,ioos:station:SCCF:56:1,2019-01-07T14:00:00Z,26.4645,-82.1044,1.64,19.42,11111222 
SCCF RECON,ioos:station:SCCF:56:1,2019-01-07T15:00:00Z,26.4645,-82.1044,1.64,19.85,11111222 
SCCF RECON,ioos:station:SCCF:56:1,2019-01-07T16:00:00Z,26.4645,-82.1044,1.64,20.65,11111222 
SCCF RECON,ioos:station:SCCF:56:1,2019-01-07T17:00:00Z,26.4645,-82.1044,1.64,21.27,11111222 
SCCF RECON,ioos:station:SCCF:56:1,2019-01-07T18:00:00Z,26.4645,-82.1044,1.64,21.71,11111222 
SCCF RECON,ioos:station:SCCF:56:1,2019-01-07T19:00:00Z,26.4645,-82.1044,1.64,21.87,11111222 
SCCF RECON,ioos:station:SCCF:56:1,2019-01-07T20:00:00Z,26.4645,-82.1044,1.64,21.8,11111222 
SCCF RECON,ioos:station:SCCF:56:1,2019-01-07T21:00:00Z,26.4645,-82.1044,1.64,21.79,11111222 
SCCF RECON,ioos:station:SCCF:56:1,2019-01-07T22:00:00Z,26.4645,-82.1044,1.64,22.2,11111222 
SCCF RECON,ioos:station:SCCF:56:1,2019-01-07T23:00:00Z,26.4645,-82.1044,1.64,21.94,11111222 
SCCF RECON,ioos:station:SCCF:56:1,2019-01-08T05:00:00Z,26.4645,-82.1044,1.64,21.25,11111222 
SCCF RECON,ioos:station:SCCF:56:1,2019-01-08T06:00:00Z,26.4645,-82.1044,1.64,21.21,11111222 
SCCF RECON,ioos:station:SCCF:56:1,2019-01-08T07:00:00Z,26.4645,-82.1044,1.64,21.27,11111222 
SCCF RECON,ioos:station:SCCF:56:1,2019-01-08T08:00:00Z,26.4645,-82.1044,1.64,21.31,11111222 
SCCF RECON,ioos:station:SCCF:56:1,2019-01-08T09:00:00Z,26.4645,-82.1044,1.64,21.18,11111222 
SCCF RECON,ioos:station:SCCF:56:1,2019-01-08T10:00:00Z,26.4645,-82.1044,1.64,21.04,11111222 
SCCF RECON,ioos:station:SCCF:56:1,2019-01-08T11:00:00Z,26.4645,-82.1044,1.64,20.99,11111222 
SCCF RECON,ioos:station:SCCF:56:1,2019-01-08T12:00:00Z,26.4645,-82.1044,1.64,20.88,11111222 
SCCF RECON,ioos:station:SCCF:56:1,2019-01-08T13:00:00Z,26.4645,-82.1044,1.64,20.83,11111222 
SCCF RECON,ioos:station:SCCF:56:1,2019-01-08T14:00:00Z,26.4645,-82.1044,1.64,20.69,11111222 
SCCF RECON,ioos:station:SCCF:56:1,2019-01-08T15:00:00Z,26.4645,-82.1044,1.64,20.84,11111222 
SCCF RECON,ioos:station:SCCF:56:1,2019-01-15T20:00:00Z,26.4645,-82.1044,1.64,18.93,11111222 
SCCF RECON,ioos:station:SCCF:56:1,2019-01-15T22:00:00Z,26.4645,-82.1044,1.64,18.68,11111222 
SCCF RECON,ioos:station:SCCF:56:1,2019-01-15T23:00:00Z,26.4645,-82.1044,1.64,18.87,11111222 
SCCF RECON,ioos:station:SCCF:56:1,2019-01-16T05:00:00Z,26.4645,-82.1044,1.64,18.0,11111222 
SCCF RECON,ioos:station:SCCF:56:1,2019-01-16T06:00:00Z,26.4645,-82.1044,1.64,17.84,11111222 
SCCF RECON,ioos:station:SCCF:56:1,2019-01-16T07:00:00Z,26.4645,-82.1044,1.64,17.55,11111222 
SCCF RECON,ioos:station:SCCF:56:1,2019-01-16T08:00:00Z,26.4645,-82.1044,1.64,17.16,11111222 
SCCF RECON,ioos:station:SCCF:56:1,2019-01-16T09:00:00Z,26.4645,-82.1044,1.64,16.74,11111222 
SCCF RECON,ioos:station:SCCF:56:1,2019-01-16T10:00:00Z,26.4645,-82.1044,1.64,16.6,11111222 
SCCF RECON,ioos:station:SCCF:56:1,2019-01-16T11:00:00Z,26.4645,-82.1044,1.64,16.34,11111222 
SCCF RECON,ioos:station:SCCF:56:1,2019-01-16T12:00:00Z,26.4645,-82.1044,1.64,15.97,11111222 
SCCF RECON,ioos:station:SCCF:56:1,2019-01-16T13:00:00Z,26.4645,-82.1044,1.64,15.93,11111222 
SCCF RECON,ioos:station:SCCF:56:1,2019-01-16T14:00:00Z,26.4645,-82.1044,1.64,16.33,11111222 
SCCF RECON,ioos:station:SCCF:56:1,2019-01-16T21:00:00Z,26.4645,-82.1044,1.64,17.97,11111222 
SCCF RECON,ioos:station:SCCF:56:1,2019-01-16T22:00:00Z,26.4645,-82.1044,1.64,17.75,11111222 
SCCF RECON,ioos:station:SCCF:56:1,2019-01-16T23:00:00Z,26.4645,-82.1044,1.64,17.1,11111222 
SCCF RECON,ioos:station:SCCF:56:1,2019-01-17T05:00:00Z,26.4645,-82.1044,1.64,16.87,11111222 
SCCF RECON,ioos:station:SCCF:56:1,2019-01-17T06:00:00Z,26.4645,-82.1044,1.64,16.75,11111222 
SCCF RECON,ioos:station:SCCF:56:1,2019-01-17T07:00:00Z,26.4645,-82.1044,1.64,16.52,11111222 
SCCF RECON,ioos:station:SCCF:56:1,2019-01-17T08:00:00Z,26.4645,-82.1044,1.64,16.23,11111222 
SCCF RECON,ioos:station:SCCF:56:1,2019-01-17T09:00:00Z,26.4645,-82.1044,1.64,15.89,11111222 
SCCF RECON,ioos:station:SCCF:56:1,2019-01-17T10:00:00Z,26.4645,-82.1044,1.64,15.64,11111222 
SCCF RECON,ioos:station:SCCF:56:1,2019-01-17T11:00:00Z,26.4645,-82.1044,1.64,15.46,11111222 
SCCF RECON,ioos:station:SCCF:56:1,2019-01-17T12:00:00Z,26.4645,-82.1044,1.64,15.45,11111222 
SCCF RECON,ioos:station:SCCF:56:1,2019-01-17T13:00:00Z,26.4645,-82.1044,1.64,15.31,11111222 
SCCF RECON,ioos:station:SCCF:56:1,2019-01-17T14:00:00Z,26.4645,-82.1044,1.64,15.63,11111222 
SCCF RECON,ioos:station:SCCF:56:1,2019-01-17T15:00:00Z,26.4645,-82.1044,1.64,15.9,11111222 
SCCF RECON,ioos:station:SCCF:56:1,2019-01-17T16:00:00Z,26.4645,-82.1044,1.64,16.37,11111222 
SCCF RECON,ioos:station:SCCF:56:1,2019-01-17T17:00:00Z,26.4645,-82.1044,1.64,16.77,11111222 
SCCF RECON,ioos:station:SCCF:56:1,2019-01-17T18:00:00Z,26.4645,-82.1044,1.64,16.54,11111222 
SCCF RECON,ioos:station:SCCF:56:1,2019-01-17T19:00:00Z,26.4645,-82.1044,1.64,17.06,11111222 
SCCF RECON,ioos:station:SCCF:56:1,2019-01-17T20:00:00Z,26.4645,-82.1044,1.64,17.08,11111222 
SCCF RECON,ioos:station:SCCF:56:1,2019-01-17T21:00:00Z,26.4645,-82.1044,1.64,17.53,11111222 
SCCF RECON,ioos:station:SCCF:56:1,2019-01-17T22:00:00Z,26.4645,-82.1044,1.64,18.56,11111222 
SCCF RECON,ioos:station:SCCF:56:1,2019-01-17T23:00:00Z,26.4645,-82.1044,1.64,18.27,11111222 
SCCF RECON,ioos:station:SCCF:56:1,2019-01-18T05:00:00Z,26.4645,-82.1044,1.64,17.65,11111222 
SCCF RECON,ioos:station:SCCF:56:1,2019-01-18T06:00:00Z,26.4645,-82.1044,1.64,17.48,11111222 
SCCF RECON,ioos:station:SCCF:56:1,2019-01-18T07:00:00Z,26.4645,-82.1044,1.64,17.25,11111222 
SCCF RECON,ioos:station:SCCF:56:1,2019-01-18T08:00:00Z,26.4645,-82.1044,1.64,17.07,11111222 
SCCF RECON,ioos:station:SCCF:56:1,2019-01-18T09:00:00Z,26.4645,-82.1044,1.64,16.95,11111222 
SCCF RECON,ioos:station:SCCF:56:1,2019-01-18T10:00:00Z,26.4645,-82.1044,1.64,16.83,11111222 
SCCF RECON,ioos:station:SCCF:56:1,2019-01-18T11:00:00Z,26.4645,-82.1044,1.64,16.72,11111222 
SCCF RECON,ioos:station:SCCF:56:1,2019-01-18T12:00:00Z,26.4645,-82.1044,1.64,16.63,11111222 
SCCF RECON,ioos:station:SCCF:56:1,2019-01-18T13:00:00Z,26.4645,-82.1044,1.64,16.75,11111222 
SCCF RECON,ioos:station:SCCF:56:1,2019-01-18T14:00:00Z,26.4645,-82.1044,1.64,16.72,11111222 
SCCF RECON,ioos:station:SCCF:56:1,2019-01-18T15:00:00Z,26.4645,-82.1044,1.64,16.89,11111222 
SCCF RECON,ioos:station:SCCF:56:1,2019-01-18T16:00:00Z,26.4645,-82.1044,1.64,17.34,11111222 
SCCF RECON,ioos:station:SCCF:56:1,2019-01-18T17:00:00Z,26.4645,-82.1044,1.64,17.75,11111222 
SCCF RECON,ioos:station:SCCF:56:1,2019-01-18T18:00:00Z,26.4645,-82.1044,1.64,17.73,11111222 
SCCF RECON,ioos:station:SCCF:56:1,2019-01-18T19:00:00Z,26.4645,-82.1044,1.64,17.77,11111222 
SCCF RECON,ioos:station:SCCF:56:1,2019-01-18T20:00:00Z,26.4645,-82.1044,1.64,18.08,11111222 
SCCF RECON,ioos:station:SCCF:56:1,2019-01-18T21:00:00Z,26.4645,-82.1044,1.64,18.28,11111222 
SCCF RECON,ioos:station:SCCF:56:1,2019-01-18T22:00:00Z,26.4645,-82.1044,1.64,18.96,11111222 
SCCF RECON,ioos:station:SCCF:56:1,2019-01-18T23:00:00Z,26.4645,-82.1044,1.64,19.39,11111222 
SCCF RECON,ioos:station:SCCF:56:1,2019-01-19T05:00:00Z,26.4645,-82.1044,1.64,18.16,11111222 
SCCF RECON,ioos:station:SCCF:56:1,2019-01-19T06:00:00Z,26.4645,-82.1044,1.64,17.91,11111222 
SCCF RECON,ioos:station:SCCF:56:1,2019-01-19T07:00:00Z,26.4645,-82.1044,1.64,17.95,11111222 
SCCF RECON,ioos:station:SCCF:56:1,2019-01-19T08:00:00Z,26.4645,-82.1044,1.64,17.94,11111222 
SCCF RECON,ioos:station:SCCF:56:1,2019-01-19T09:00:00Z,26.4645,-82.1044,1.64,17.83,11111222 
SCCF RECON,ioos:station:SCCF:56:1,2019-01-19T10:00:00Z,26.4645,-82.1044,1.64,17.7,11111222 
SCCF RECON,ioos:station:SCCF:56:1,2019-01-19T11:00:00Z,26.4645,-82.1044,1.64,17.62,11111222 
SCCF RECON,ioos:station:SCCF:56:1,2019-01-19T12:00:00Z,26.4645,-82.1044,1.64,17.62,11111222 
SCCF RECON,ioos:station:SCCF:56:1,2019-01-19T13:00:00Z,26.4645,-82.1044,1.64,17.54,11111222 
SCCF RECON,ioos:station:SCCF:56:1,2019-01-19T14:00:00Z,26.4645,-82.1044,1.64,17.61,11111222 
SCCF RECON,ioos:station:SCCF:56:1,2019-01-19T15:00:00Z,26.4645,-82.1044,1.64,17.87,11111222 
SCCF RECON,ioos:station:SCCF:56:1,2019-01-19T16:00:00Z,26.4645,-82.1044,1.64,18.26,11111222 
SCCF RECON,ioos:station:SCCF:56:1,2019-01-19T17:00:00Z,26.4645,-82.1044,1.64,18.54,11111222 
SCCF RECON,ioos:station:SCCF:56:1,2019-01-19T18:00:00Z,26.4645,-82.1044,1.64,18.86,11111222 
SCCF RECON,ioos:station:SCCF:56:1,2019-01-19T19:00:00Z,26.4645,-82.1044,1.64,18.96,11111222 
SCCF RECON,ioos:station:SCCF:56:1,2019-01-19T20:00:00Z,26.4645,-82.1044,1.64,19.01,11111222 
SCCF RECON,ioos:station:SCCF:56:1,2019-01-19T21:00:00Z,26.4645,-82.1044,1.64,19.19,11111222 
SCCF RECON,ioos:station:SCCF:56:1,2019-01-19T22:00:00Z,26.4645,-82.1044,1.64,19.29,11111222 
SCCF RECON,ioos:station:SCCF:56:1,2019-01-19T23:00:00Z,26.4645,-82.1044,1.64,19.64,11111222 
SCCF RECON,ioos:station:SCCF:56:1,2019-01-20T05:00:00Z,26.4645,-82.1044,1.64,18.39,11111222 
SCCF RECON,ioos:station:SCCF:56:1,2019-01-20T06:00:00Z,26.4645,-82.1044,1.64,18.56,11111222 
SCCF RECON,ioos:station:SCCF:56:1,2019-01-20T07:00:00Z,26.4645,-82.1044,1.64,18.63,11111222 
SCCF RECON,ioos:station:SCCF:56:1,2019-01-20T08:00:00Z,26.4645,-82.1044,1.64,18.84,11111222 
SCCF RECON,ioos:station:SCCF:56:1,2019-01-20T09:00:00Z,26.4645,-82.1044,1.64,19.04,11111222 
SCCF RECON,ioos:station:SCCF:56:1,2019-01-20T10:00:00Z,26.4645,-82.1044,1.64,19.13,11111222 
SCCF RECON,ioos:station:SCCF:56:1,2019-01-20T11:00:00Z,26.4645,-82.1044,1.64,19.2,11111222 
SCCF RECON,ioos:station:SCCF:56:1,2019-01-20T12:00:00Z,26.4645,-82.1044,1.64,19.24,11111222 
SCCF RECON,ioos:station:SCCF:56:1,2019-01-20T13:00:00Z,26.4645,-82.1044,1.64,19.27,11111222 
SCCF RECON,ioos:station:SCCF:56:1,2019-01-20T14:00:00Z,26.4645,-82.1044,1.64,19.26,11111222 
SCCF RECON,ioos:station:SCCF:56:1,2019-01-20T15:00:00Z,26.4645,-82.1044,1.64,18.66,11111222 
SCCF RECON,ioos:station:SCCF:56:1,2019-01-20T16:00:00Z,26.4645,-82.1044,1.64,19.12,11111222 
SCCF RECON,ioos:station:SCCF:56:1,2019-01-20T17:00:00Z,26.4645,-82.1044,1.64,19.14,11111222 
SCCF RECON,ioos:station:SCCF:56:1,2019-01-20T18:00:00Z,26.4645,-82.1044,1.64,19.06,11111222 
SCCF RECON,ioos:station:SCCF:56:1,2019-01-20T19:00:00Z,26.4645,-82.1044,1.64,19.12,11111222 
SCCF RECON,ioos:station:SCCF:56:1,2019-01-20T20:00:00Z,26.4645,-82.1044,1.64,19.32,11111222 
SCCF RECON,ioos:station:SCCF:56:1,2019-01-20T21:00:00Z,26.4645,-82.1044,1.64,19.55,11111222 
SCCF RECON,ioos:station:SCCF:56:1,2019-01-20T22:00:00Z,26.4645,-82.1044,1.64,19.61,11111222 
SCCF RECON,ioos:station:SCCF:56:1,2019-01-20T23:00:00Z,26.4645,-82.1044,1.64,19.59,11111222 
SCCF RECON,ioos:station:SCCF:56:1,2019-01-21T05:00:00Z,26.4645,-82.1044,1.64,17.51,11111222 
SCCF RECON,ioos:station:SCCF:56:1,2019-01-21T06:00:00Z,26.4645,-82.1044,1.64,17.5,11111222 
SCCF RECON,ioos:station:SCCF:56:1,2019-01-21T07:00:00Z,26.4645,-82.1044,1.64,17.38,11111222 
SCCF RECON,ioos:station:SCCF:56:1,2019-01-21T08:00:00Z,26.4645,-82.1044,1.64,17.27,11111222 
SCCF RECON,ioos:station:SCCF:56:1,2019-01-21T09:00:00Z,26.4645,-82.1044,1.64,17.16,11111222 
SCCF RECON,ioos:station:SCCF:56:1,2019-01-21T10:00:00Z,26.4645,-82.1044,1.64,16.86,11111222 
SCCF RECON,ioos:station:SCCF:56:1,2019-01-21T11:00:00Z,26.4645,-82.1044,1.64,16.46,11111222 
SCCF RECON,ioos:station:SCCF:56:1,2019-01-21T12:00:00Z,26.4645,-82.1044,1.64,15.87,11111222 
SCCF RECON,ioos:station:SCCF:56:1,2019-01-21T13:00:00Z,26.4645,-82.1044,1.64,15.49,11111222 
SCCF RECON,ioos:station:SCCF:56:1,2019-01-21T14:00:00Z,26.4645,-82.1044,1.64,14.9,11111222 
SCCF RECON,ioos:station:SCCF:56:1,2019-01-21T15:00:00Z,26.4645,-82.1044,1.64,15.71,11111222 
SCCF RECON,ioos:station:SCCF:56:1,2019-01-21T16:00:00Z,26.4645,-82.1044,1.64,15.62,11111222 
SCCF RECON,ioos:station:SCCF:56:1,2019-01-21T17:00:00Z,26.4645,-82.1044,1.64,15.81,11111222 
SCCF RECON,ioos:station:SCCF:56:1,2019-01-21T18:00:00Z,26.4645,-82.1044,1.64,16.86,11111222 
SCCF RECON,ioos:station:SCCF:56:1,2019-01-21T19:00:00Z,26.4645,-82.1044,1.64,17.21,11111222 
SCCF RECON,ioos:station:SCCF:56:1,2019-01-21T20:00:00Z,26.4645,-82.1044,1.64,17.51,11111222 
SCCF RECON,ioos:station:SCCF:56:1,2019-01-21T21:00:00Z,26.4645,-82.1044,1.64,17.48,11111222 
SCCF RECON,ioos:station:SCCF:56:1,2019-01-21T22:00:00Z,26.4645,-82.1044,1.64,17.42,11111222 
SCCF RECON,ioos:station:SCCF:56:1,2019-01-21T23:00:00Z,26.4645,-82.1044,1.64,17.48,11111222 
SCCF RECON,ioos:station:SCCF:56:1,2019-01-22T05:00:00Z,26.4645,-82.1044,1.64,16.64,11111222 
SCCF RECON,ioos:station:SCCF:56:1,2019-01-22T06:00:00Z,26.4645,-82.1044,1.64,16.56,11111222 
SCCF RECON,ioos:station:SCCF:56:1,2019-01-22T07:00:00Z,26.4645,-82.1044,1.64,16.35,11111222 
SCCF RECON,ioos:station:SCCF:56:1,2019-01-22T08:00:00Z,26.4645,-82.1044,1.64,16.31,11111222 